Retour au catalogue

RADIO 4

ActifRadio amateurPO
NORAD 13000·PAYLOAD·🇷🇺 Russia

Lancé Dec 17, 1981 depuis Plesetsk Cosmodrome

Loading…

Prochains Passages (prochaines 24 heures)

TLE

FraisSource: Space-Track

Époque: Sep 14, 2026, 07:05 UTC

1 13000U 81120D   26257.29582565  .00000092  00000-0  93878-3 0  9999
2 13000  82.9663  11.8185 0017416 351.5978  35.6897 12.06920168970909

Suivez RADIO 4 en temps réel avec AllMySat

Download on the App Store